Probability
0 0 0 0 0 0 0 0 0 0 0 0 0 0 0 0 0 0 0 0 0 0 0 0 0 0 0 0 0 0 0 0 0 0 0 0 0 0
0 0 0 0 0 0 0 0 0 0 0 0 0 0 0 0 0 0 0 0 0 0 0 0 0 0 0 0 0 0 0 0 0 0 0 0 0 0
0 0 0 0 0 0 0 0 0 0 0 0 0 0 0 0 0 0 0 0 0 0 0 0 0 0 0 0 0 0 0 0 0 0 0 0 0 0
0 0 0 0 0 0 0 0 0 0 0 0 0 0 0 0 0 0 0 0 0 0 0 0 0 0 0 0 0 0 0 0 0 0 0 0 0 0
0 0 0 0 0 0 0 0 0 0 0 0 0 0 0 0 0 0 0 0 0 0 0 0 0 0 0 0 0 0 0 0 0 0 0 0 0 0
0 0 0 0 0 0 0 0 0 0 0 0 0 0 0 0 0 0 0 0 0 0 0 0 0 0 0 0 0 0 0 0 0 0 0 0 0 0
0 0 0 0 0 0 0 0 0 0 0 0 0 0 0 0 0 0 0 0 0 0 0 0 0 0 0 0 0 0 0 0 0 0 0 0 0 0
0 0 0 0 0 0 0 0 0 0 0 0 0 0 0 0 0 0 0 0 0 0 0 0 0 0 0 0 0 0 0 0 0 0 0 0 0 0
0 0 0 0 0 0 0 0 0 0 0 0 0 0 0 0 0 0 0 0 0 0 0 0 0 0 0 0 0 0 0 0 0 0 0 0 0 0
0 0 0 0 0 0 0 0 0 0 0 0 0 0 0 0 0 0 0 0 0 0 0 0 0 0 0 0 0 0 0 0 0 0 0 0 0 0
0 0 0 0 0 0 0 0 0 0 0 0 0 0 0 0 0 0 0 0 0 0 0 0 0 0 0 0 0 0 0 0 0 0 0 0 0 0
0 0 0 0 0 0 0 0 0 0 0 0 0 0 0 0 0 0 0 0 0 0 0 0 0 0 0 0 0 0 0 0 0 0 0 0 0 0
0 0 0 0 0 0 0 0 0 0 0 0 0 0 0 0 0 0 0 0 0 0 0 0 0 0 0 0 0 0 0 0 0 0 0 0 0 0
0 0 0 0 0 0 0 0 0 0 0 0 0 0 0 0 0 0 0 0 0 0 0 0 0 0 0 0 0 0 0 0 0 0 0 0 0 0
0 0 0 0 0 0 0 0 0 0 0 0 0 0 0 0 0 0 0 0 0 0 0 0 0 0 0 0 0 0 0 0 0 0 0 0 0 0
0 0 0 0 0 0 0 0 0 0 0 0 0 0 0 0 0 0 0 0 0 0 0 0 0 0 0 0 0 0 0 0 0 0 0 0 0 0
0 0 0 0 0 0 0 0 0 0 0 0 0 0 0 0 0 0 0 0 0 0 0 0 0 0 0 0 0 0 0 0 0 0 0 0 0 0
0 0 0 0 0 0 0 0 0 0 0 0 0 0 0 0 0 0 0 0 0 0 0 0 0 0 0 0 0 0 0 0 0 0 0 0 0 0
0 0 0 0 0 0 0 0 0 0 0 0 0 0 0 0 0 0 0 0 0 0 0 0 0 0 0 0 0 0 0 0 0 0 0 0 0 0
0 0 0 0 0 0 0 0 0 0 0 0 0 0 0 0 0 0 0 0 0 0 0 0 0 0 0 0 0 0 0 0 0 0 0 0 0 0
0 0 0 0 0 0 0 0 0 0 0 0 0 0 0 0 0 0 0 0 0 0 0 0 0 0 0 0 0 0 0 0 0 0 0 0 0 0
0 0 0 0 0 0 0 0 0 0 0 0 0 0 0 0 0 0 0 0 0 0 0 0 0 0 0 0 0 0 0 0 0 0 0 0 0 0
0 0 0 0 0 0 0 0 0 0 0 0 0 0 0 0 0 0 0 0 0 0 0 0 0 0 0 0 0 0 0 0 0 0 0 0 0 0
Wind_Speed
2 2 1 1 0 1 2 3 4 1 2 3 2 2 2 2 5 4 4 8 9 9 9 9 8 8 8 8 8 8 8 8 8 8 9 10 11 12
3 2 2 1 1 1 1 2 3 4 2 3 3 2 2 3 6 5 6 9 11 11 11 11 11 11 10 10 10 9 9 9 9 9 9 10 10 11
4 4 4 3 2 1 1 1 2 3 3 3 2 2 2 3 3 4 5 5 5 11 12 12 13 13 12 12 12 11 11 11 10 10 10 10 11 11
6 5 5 4 4 3 2 2 2 3 3 4 3 2 4 4 4 4 5 5 5 9 12 13 13 13 14 14 13 13 13 12 12 11 11 11 11 11
7 6 6 5 5 4 4 4 3 3 3 3 4 3 3 3 3 4 5 4 5 7 10 11 12 13 14 14 14 14 14 13 13 13 13 12 12 12
7 7 7 7 7 7 5 6 5 4 3 3 4 4 4 4 2 3 4 4 4 5 6 6 8 10 12 13 14 14 14 14 14 14 14 14 13 13
6 6 7 9 11 9 6 6 6 5 4 4 5 4 4 3 4 3 4 4 4 4 4 4 4 4 5 9 12 14 15 15 15 15 15 15 15 15
7 6 7 8 10 13 14 12 10 8 7 6 5 6 7 6 4 4 4 3 5 3 3 5 3 5 5 5 10 14 15 16 16 16 16 16 16 16
7 6 6 6 7 6 8 11 12 14 13 8 8 9 8 7 6 6 6 6 7 5 3 5 4 6 6 7 13 15 16 16 16 16 16 17 17 17
5 5 5 5 4 4 5 6 7 8 10 9 9 10 10 8 8 8 8 6 6 5 5 5 5 6 7 6 12 15 16 16 16 16 16 16 17 17
3 3 3 3 4 4 3 5 7 7 9 11 12 13 15 15 10 5 5 5 7 6 5 5 6 6 5 7 10 15 16 16 16 16 16 16 16 15
2 2 1 2 4 4 3 5 7 8 6 7 8 10 11 12 14 10 8 8 7 6 6 6 6 4 5 5 6 7 8 12 15 16 16 16 15 7
2 2 2 5 7 7 6 6 9 9 6 7 7 7 7 7 8 8 9 9 9 9 6 6 5 5 6 5 4 5 6 6 6 8 12 15 15 11
2 3 3 7 8 9 7 8 11 9 5 5 5 6 6 7 7 8 9 10 11 12 9 8 6 7 6 6 6 5 5 6 6 6 6 9 12 14
2 5 7 9 9 7 8 11 9 4 3 4 5 6 6 7 7 6 7 8 9 11 10 9 9 8 7 9 8 7 5 5 6 7 6 6 6 6
3 5 8 8 6 6 7 6 3 3 3 4 5 5 5 5 6 6 6 6 7 8 8 10 10 11 10 11 9 9 8 6 5 6 7 6 6 6
3 3 3 3 4 4 4 4 4 3 4 4 4 5 5 5 6 5 6 6 7 8 8 6 7 9 11 9 9 10 9 9 8 7 6 7 7 7
2 2 3 3 4 4 4 5 4 4 4 4 5 5 5 6 6 6 5 6 8 8 8 7 5 5 5 7 12 11 9 9 8 7 7 7 9 7
2 2 3 3 4 4 4 4 5 5 5 5 5 5 6 6 6 6 6 7 7 8 8 6 5 6 9 10 8 12 11 9 7 7 8 9 9 8
2 3 3 4 4 4 4 4 5 5 5 5 6 6 6 6 7 7 7 8 8 8 8 6 6 7 9 10 7 6 13 10 7 8 8 7 7 8
4 4 4 4 4 4 4 5 5 5 6 6 6 7 6 6 7 7 8 10 9 8 8 8 8 11 7 5 6 6 6 12 12 8 6 6 5 5
4 4 4 5 5 5 5 5 5 6 7 6 7 7 7 7 8 9 9 9 8 8 9 8 7 5 4 6 8 8 7 6 9 14 14 11 7 7
4 4 5 5 5 5 5 6 7 7 7 7 7 7 7 8 8 8 9 9 8 8 8 7 5 4 5 6 7 6 8 7 5 5 7 12 17 17
Wind_Direction
189 182 188 207 149 151 151 149 144 150 291 294 305 288 238 217 217 208 220 228 229 233 239 244 246 246 247 248 249 249 252 255 255 253 255 256 253 251
193 189 203 213 198 144 142 148 149 157 213 265 263 268 244 229 222 219 230 237 238 241 245 249 250 249 247 246 246 246 248 250 251 250 250 251 251 252
206 202 219 215 211 213 178 158 161 155 197 267 267 270 244 249 247 242 246 242 244 246 249 253 252 250 247 246 246 246 247 248 249 250 252 252 252 251
216 211 223 219 218 221 210 210 205 190 189 244 273 273 258 250 246 248 248 242 238 248 250 253 253 250 246 244 244 245 246 246 247 247 249 250 251 252
213 213 220 211 220 222 218 219 222 217 196 217 256 259 266 265 266 267 261 259 255 253 253 253 254 252 247 244 243 244 245 246 246 246 246 246 247 248
217 216 217 210 215 217 220 222 221 224 220 225 248 259 262 267 250 262 278 266 262 263 262 260 257 257 253 248 247 246 246 245 245 245 245 245 245 246
229 226 225 222 220 216 217 217 215 222 227 233 246 255 256 255 245 239 252 268 269 250 260 263 257 257 258 253 250 247 246 245 244 244 243 242 241 241
229 237 241 237 236 233 233 226 213 215 223 227 237 239 249 239 238 235 238 251 272 252 220 258 237 250 250 243 246 247 246 245 244 244 242 240 239 239
226 231 245 247 241 243 248 247 239 233 225 222 233 242 245 236 227 237 233 230 241 239 209 259 247 251 250 250 246 247 248 248 246 244 243 240 239 237
235 230 235 251 257 252 256 261 258 252 243 234 235 245 244 239 226 232 240 245 251 246 202 245 251 247 254 248 249 247 248 248 248 247 244 241 239 237
263 254 242 251 277 272 263 270 274 273 265 253 246 251 253 251 242 239 240 240 257 255 207 221 249 254 255 253 252 247 247 247 247 247 245 243 240 237
296 291 257 268 293 294 265 264 272 276 282 286 272 265 260 258 248 233 233 239 248 255 224 212 238 235 262 254 248 246 246 248 246 244 244 243 240 228
306 299 297 311 303 299 281 255 260 272 280 272 273 273 268 260 253 239 230 231 239 244 228 203 225 221 228 256 261 245 234 239 241 242 241 240 236 213
293 295 298 310 306 300 287 272 275 278 266 267 269 269 267 265 262 253 244 239 239 245 243 220 227 228 235 247 255 256 244 236 229 234 233 236 236 226
297 304 309 307 307 300 291 291 292 277 266 268 269 270 267 269 273 272 267 257 254 252 251 236 234 238 233 242 248 244 249 247 226 230 231 224 224 213
330 317 315 313 310 301 305 309 301 281 275 273 277 277 281 282 279 274 273 271 269 267 254 243 238 237 241 241 243 247 238 236 233 228 230 232 226 215
330 337 343 342 339 331 324 316 312 313 301 291 290 292 290 287 285 280 271 271 267 272 274 261 245 239 237 238 243 243 243 241 236 229 223 240 240 227
23 351 332 326 320 317 315 313 310 307 302 299 297 294 293 292 291 288 280 274 272 271 270 268 263 263 260 248 229 240 240 240 237 225 216 230 248 240
23 329 314 309 309 310 309 309 310 308 305 302 300 297 295 293 290 288 284 280 276 273 270 264 253 249 260 267 249 217 227 235 234 231 225 224 238 242
351 327 319 315 311 308 308 308 307 308 304 300 297 295 291 289 289 288 285 280 279 278 276 268 254 245 248 260 263 243 220 223 226 232 234 230 239 248
336 328 320 316 312 309 308 307 305 302 300 298 294 291 291 291 290 290 289 287 281 277 275 271 263 256 253 254 257 256 241 222 221 223 221 224 234 236
323 320 317 316 314 309 307 305 305 301 300 297 295 293 292 290 289 290 289 288 284 280 277 276 275 269 246 247 257 262 263 256 239 233 227 216 208 216
322 319 315 313 310 309 308 306 304 301 299 298 297 295 294 293 291 288 287 285 286 288 287 285 281 265 256 253 258 261 263 262 254 244 244 236 233 239